DELTA 1 DEB, 7061

Orbit data source: Space-Track

DELTA 1 DEB, 7061 is space debris in SSO originally from a launch on Tue, 06 Nov 1973 UTC launched from the Air Force Western Test Range (AFWTR). Debris objects in space refer to the collection of defunct objects orbiting the Earth. Examples of debris include non-operational satellites, rocket bodies, and fragments generated from explosions, collisions, or faulty payload assembly.

Loading next visibility...
Identifier
7061, 1973-086BD
Orbit
SSO
Country
Flag of USUS
Related business
Manufacturer
Unknown
Mission
Spacecraft
Bus & Motor
Unknown
Mass
Unknown
Launch date (UTC)
1973-11-06 (52 years ago)
Launch vehicle
Unknown
Launch site
Air Force Western Test Range (AFWTR)
Object type
Payload
Rocket body
Debris
Shape & HBR
Unknown shape, 0.2 m
Radar Cross Section
Medium (>0.1 m² and <1 m²)

Expand to show TLE details & history
Last TLE update: 10 hours ago

TLE from 10 hours ago
0 DELTA 1 DEB
1 07061U 73086BD  26033.60614214 -.00000005  00000-0  26248-3 0  9997
2 07061 102.4800 277.9728 0140926 238.8010 148.9106 12.56199214390851
Epoch: 2026-02-02T14:32Z
TLE epoch observation values (Epoch: 2026-02-02T14:32:50.680Z)
Latitude
27.83989°
Longitude
-79.71729°
Altitude
1,536.532 km
Speed
7.057 km/s
True Right ascension
18h 05m 10s
True Declination
27° 42' 43"
Sunlit
Object was in daylight at epoch
Visualization orbit readout
Latitude
Unknown
Longitude
Unknown
Altitude
Unknown
Speed
Unknown
Apparent Right ascension
Unknown
Apparent Declination
Unknown
Sunlit
N/A
Visualization observer readout
Local Sidereal Time
02:11:14
Azimuth
Unknown
Elevation
Unknown
Doppler factor
Unknown
Orbital elements
Apogee altitude
1,546.379 km
Perigee altitude
1,326.129 km
Semi-major axis
7,814.391 km
Eccentricity
0.01409
Inclination
102.48°
RAAN
277.9728°
Arg. of periapsis
238.801°
True anomaly
149.73206°
Mean anomaly
148.9106°
Eccentric anomaly
149.32256°
Mean motion
3.14196 °/min
Orbital period
114.58 mins
BSTAR
0.00026248
Loading maneuver chart data...
Computing Atmospheric mass density...
Loading historical data...
Loading historical data...
Loading historical data...
Loading historical data...
Loading historical data...
Loading historical data...
Loading historical data...

Documentation

Showing up to 5 results
|